Terminal Aerodrome Forecast
Issued by NWS Omaha/Valley, NE

Home | Current Version | Previous Version | Text Only | Print | Product List | Glossary On
Versions: 1 2 3 4 5 6 7 8 9 10 11 12 13 14 15 16 17 18 19 20 21 22 23 24 25 26 27 28 29 30 31 32 33 34 35 36 37 38 39 40 41
000
FTUS43 KOAX 311614 AAB
TAFOMA
TAF AMD
KOMA 311614Z 3116/0112 15009KT P6SM -RASN OVC010
      TEMPO 3116/3118 4SM -RASN OVC006
     FM312100 14009KT 3SM -RASN BR OVC008
     FM010100 09009KT 2SM -SN BR OVC007
     FM010800 01014G22KT 1SM -SN OVC005=

USA.gov is the U.S. government's official web portal to all federal, state and local government web resources and services.